| time (UTC) | temp F | wind direction | speed MPH | gust MPH | rain 1hr in | rain 24hr in | rain mn in | humidity % | barometer mb |
| 20260510145730 | 53 | 52 | 0.0 | 1.0 | 0.00 | 0.06 | 0.06 | 83 | 1011.9 |
| 20260510145227 | 52 | 85 | 0.0 | 0.0 | 0.00 | 0.06 | 0.06 | 84 | 1011.7 |
| 20260510144723 | 52 | 95 | 1.0 | 3.0 | 0.00 | 0.06 | 0.06 | 84 | 1011.8 |
| 20260510144220 | 52 | 306 | 5.0 | 7.0 | 0.00 | 0.06 | 0.06 | 87 | 1011.8 |
| 20260510143714 | 51 | 304 | 3.0 | 3.0 | 0.00 | 0.06 | 0.06 | 88 | 1011.6 |
| 20260510143211 | 51 | 251 | 1.0 | 2.0 | 0.00 | 0.06 | 0.06 | 88 | 1011.5 |
| 20260510142708 | 50 | 252 | 2.0 | 2.0 | 0.00 | 0.06 | 0.06 | 89 | 1011.6 |
| 20260510142204 | 50 | 101 | 1.0 | 1.0 | 0.00 | 0.06 | 0.06 | 89 | 1011.5 |
| 20260510141701 | 50 | 101 | 0.0 | 0.0 | 0.00 | 0.06 | 0.06 | 91 | 1011.1 |
| 20260510141200 | 50 | 99 | 1.0 | 1.0 | 0.00 | 0.06 | 0.06 | 91 | 1011.2 |
| 20260510140656 | 50 | 99 | 2.0 | 2.0 | 0.00 | 0.06 | 0.06 | 91 | 1011.1 |
| 20260510140155 | 50 | 99 | 0.0 | 0.0 | 0.00 | 0.06 | 0.06 | 90 | 1010.9 |
| 20260510135650 | 50 | 122 | 2.0 | 2.0 | 0.00 | 0.06 | 0.06 | 90 | 1010.9 |
| 20260510135147 | 50 | 314 | 2.0 | 2.0 | 0.00 | 0.06 | 0.06 | 90 | 1010.6 |
| 20260510134644 | 51 | 164 | 0.0 | 0.0 | 0.00 | 0.06 | 0.06 | 97 | 1010.4 |
| 20260510134141 | 52 | 217 | 0.0 | 1.0 | 0.00 | 0.06 | 0.06 | 97 | 1010.3 |
| 20260510133638 | 52 | 163 | 1.0 | 1.0 | 0.00 | 0.06 | 0.06 | 97 | 1010.2 |
| 20260510133133 | 52 | 271 | 4.0 | 4.0 | 0.00 | 0.06 | 0.06 | 96 | 1010.4 |
| 20260510132629 | 52 | 259 | 1.0 | 2.0 | 0.00 | 0.06 | 0.06 | 96 | 1010.3 |
| 20260510132127 | 52 | 171 | 2.0 | 3.0 | 0.00 | 0.06 | 0.06 | 96 | 1010.4 |
| 20260510131624 | 52 | 209 | 0.0 | 0.0 | 0.00 | 0.06 | 0.06 | 96 | 1010.4 |
| 20260510131122 | 53 | 165 | 1.0 | 1.0 | 0.00 | 0.06 | 0.06 | 96 | 1010.5 |
| 20260510130618 | 53 | 326 | 1.0 | 1.0 | 0.00 | 0.06 | 0.06 | 97 | 1010.2 |
| 20260510130115 | 53 | 326 | 1.0 | 2.0 | 0.00 | 0.06 | 0.06 | 97 | 1010.2 |
| 20260510125606 | 52 | 326 | 2.0 | 3.0 | 0.00 | 0.06 | 0.06 | 98 | 1010.0 |
| 20260510125102 | 52 | 326 | 0.0 | 1.0 | 0.00 | 0.06 | 0.06 | 98 | 1010.1 |
| 20260510124559 | 52 | 326 | 0.0 | 1.0 | 0.00 | 0.06 | 0.06 | 98 | 1010.0 |
| 20260510124056 | 51 | 326 | 0.0 | 0.0 | 0.00 | 0.06 | 0.06 | 98 | 1010.0 |
| 20260510123551 | 52 | 326 | 1.0 | 1.0 | 0.00 | 0.06 | 0.06 | 98 | 1010.2 |
| 20260510123047 | 51 | 326 | 1.0 | 1.0 | 0.00 | 0.06 | 0.06 | 99 | 1009.8 |
| 20260510122543 | 51 | 326 | 2.0 | 2.0 | 0.00 | 0.06 | 0.06 | 99 | 1009.9 |
| 20260510122040 | 51 | 326 | 0.0 | 1.0 | 0.00 | 0.06 | 0.06 | 99 | 1009.8 |
| 20260510121537 | 51 | 326 | 0.0 | 1.0 | 0.00 | 0.06 | 0.06 | 99 | 1009.7 |
| 20260510121034 | 51 | 326 | 0.0 | 1.0 | 0.00 | 0.06 | 0.06 | 99 | 1009.8 |
| 20260510120531 | 50 | 326 | 0.0 | 0.0 | 0.00 | 0.06 | 0.06 | 99 | 1009.7 |
| 20260510120027 | 50 | 326 | 0.0 | 0.0 | 0.00 | 0.06 | 0.06 | 99 | 1009.4 |
| 20260510115524 | 49 | 326 | 0.0 | 0.0 | 0.00 | 0.06 | 0.06 | 99 | 1009.3 |
| 20260510115021 | 49 | 326 | 0.0 | 0.0 | 0.00 | 0.06 | 0.06 | 99 | 1009.3 |
| 20260510114516 | 49 | 326 | 0.0 | 0.0 | 0.00 | 0.06 | 0.06 | 99 | 1009.4 |
| 20260510114012 | 49 | 326 | 3.0 | 3.0 | 0.00 | 0.06 | 0.06 | 99 | 1009.3 |
| 20260510113507 | 49 | 326 | 0.0 | 1.0 | 0.00 | 0.06 | 0.06 | 99 | 1009.1 |
| 20260510113005 | 48 | 326 | 0.0 | 0.0 | 0.00 | 0.06 | 0.06 | 99 | 1009.1 |
| 20260510112457 | 48 | 326 | 0.0 | 0.0 | 0.00 | 0.06 | 0.06 | 99 | 1009.3 |
| 20260510111953 | 47 | 326 | 0.0 | 0.0 | 0.00 | 0.06 | 0.06 | 99 | 1009.1 |
| 20260510111449 | 47 | 326 | 0.0 | 0.0 | 0.00 | 0.06 | 0.06 | 99 | 1008.8 |
| 20260510110945 | 47 | 326 | 0.0 | 0.0 | 0.00 | 0.06 | 0.06 | 99 | 1008.7 |
| 20260510110442 | 46 | 326 | 0.0 | 1.0 | 0.00 | 0.06 | 0.06 | 99 | 1008.8 |
| 20260510105938 | 46 | 326 | 0.0 | 0.0 | 0.00 | 0.06 | 0.06 | 99 | 1008.5 |
| 20260510105433 | 46 | 326 | 0.0 | 0.0 | 0.00 | 0.06 | 0.06 | 99 | 1008.5 |
| 20260510104929 | 46 | 326 | 0.0 | 0.0 | 0.00 | 0.06 | 0.06 | 99 | 1008.5 |
| 20260510104425 | 45 | 326 | 0.0 | 0.0 | 0.00 | 0.06 | 0.06 | 99 | 1008.6 |
| 20260510103921 | 45 | 326 | 0.0 | 0.0 | 0.00 | 0.06 | 0.06 | 99 | 1008.2 |
| 20260510103414 | 45 | 326 | 0.0 | 0.0 | 0.00 | 0.06 | 0.06 | 99 | 1008.2 |
| 20260510102908 | 45 | 326 | 0.0 | 0.0 | 0.00 | 0.06 | 0.06 | 99 | 1008.2 |
| 20260510102404 | 45 | 326 | 0.0 | 0.0 | 0.00 | 0.06 | 0.06 | 99 | 1008.0 |
| 20260510101902 | 45 | 326 | 0.0 | 0.0 | 0.00 | 0.06 | 0.06 | 99 | 1008.3 |
| 20260510101400 | 44 | 326 | 0.0 | 0.0 | 0.00 | 0.06 | 0.06 | 99 | 1007.9 |
| 20260510100856 | 44 | 325 | 0.0 | 0.0 | 0.00 | 0.06 | 0.06 | 99 | 1007.9 |
| 20260510100353 | 44 | 325 | 0.0 | 0.0 | 0.00 | 0.06 | 0.06 | 99 | 1007.8 |
| 20260510095849 | 44 | 325 | 0.0 | 0.0 | 0.00 | 0.06 | 0.06 | 99 | 1007.8 |
| 20260510095344 | 44 | 325 | 0.0 | 0.0 | 0.00 | 0.06 | 0.06 | 99 | 1007.6 |
| 20260510094844 | 44 | 325 | 0.0 | 0.0 | 0.00 | 0.06 | 0.06 | 99 | 1008.0 |
| 20260510094339 | 44 | 325 | 0.0 | 0.0 | 0.00 | 0.06 | 0.06 | 99 | 1007.9 |
| 20260510093836 | 44 | 325 | 0.0 | 0.0 | 0.00 | 0.06 | 0.06 | 99 | 1007.8 |
| 20260510093332 | 44 | 325 | 0.0 | 0.0 | 0.00 | 0.06 | 0.06 | 99 | 1007.7 |
| 20260510092828 | 44 | 325 | 0.0 | 0.0 | 0.00 | 0.06 | 0.06 | 99 | 1007.6 |
| 20260510092324 | 44 | 326 | 0.0 | 0.0 | 0.00 | 0.06 | 0.06 | 99 | 1007.8 |
| 20260510091820 | 44 | 326 | 0.0 | 0.0 | 0.00 | 0.06 | 0.06 | 99 | 1007.5 |
| 20260510091318 | 44 | 326 | 0.0 | 0.0 | 0.00 | 0.06 | 0.06 | 99 | 1007.5 |
| 20260510090814 | 44 | 326 | 0.0 | 0.0 | 0.00 | 0.06 | 0.06 | 99 | 1007.3 |
| 20260510090311 | 44 | 326 | 0.0 | 0.0 | 0.00 | 0.06 | 0.06 | 99 | 1007.5 |
| 20260510085807 | 43 | 326 | 0.0 | 0.0 | 0.00 | 0.06 | 0.06 | 99 | 1007.4 |
| 20260510085307 | 43 | 326 | 0.0 | 0.0 | 0.00 | 0.06 | 0.06 | 99 | 1007.5 |
| 20260510084802 | 43 | 326 | 0.0 | 0.0 | 0.00 | 0.06 | 0.06 | 99 | 1007.5 |
| 20260510084259 | 43 | 326 | 0.0 | 0.0 | 0.00 | 0.06 | 0.06 | 99 | 1007.5 |
| 20260510083756 | 43 | 326 | 0.0 | 0.0 | 0.00 | 0.06 | 0.06 | 99 | 1007.5 |
| 20260510083253 | 43 | 326 | 0.0 | 0.0 | 0.00 | 0.06 | 0.06 | 99 | 1007.3 |
| 20260510082749 | 43 | 326 | 0.0 | 0.0 | 0.00 | 0.06 | 0.06 | 99 | 1007.2 |
| 20260510082245 | 43 | 326 | 0.0 | 0.0 | 0.00 | 0.06 | 0.06 | 99 | 1007.1 |
| 20260510081744 | 43 | 326 | 0.0 | 0.0 | 0.00 | 0.06 | 0.06 | 99 | 1007.1 |
| 20260510081241 | 44 | 326 | 0.0 | 0.0 | 0.00 | 0.06 | 0.06 | 99 | 1006.9 |
| 20260510080736 | 44 | 326 | 0.0 | 0.0 | 0.00 | 0.06 | 0.06 | 99 | 1007.1 |
| 20260510080232 | 44 | 326 | 0.0 | 0.0 | 0.00 | 0.06 | 0.06 | 99 | 1007.0 |
| 20260510075729 | 44 | 326 | 0.0 | 0.0 | 0.00 | 0.06 | 0.06 | 99 | 1007.1 |
| 20260510075227 | 45 | 326 | 0.0 | 0.0 | 0.00 | 0.06 | 0.06 | 99 | 1007.0 |
| 20260510074724 | 45 | 326 | 0.0 | 0.0 | 0.00 | 0.06 | 0.06 | 99 | 1007.0 |
| 20260510074220 | 45 | 326 | 0.0 | 0.0 | 0.00 | 0.06 | 0.06 | 99 | 1006.8 |
| 20260510073716 | 45 | 326 | 0.0 | 0.0 | 0.00 | 0.06 | 0.06 | 99 | 1006.8 |
| 20260510073212 | 45 | 326 | 0.0 | 0.0 | 0.00 | 0.06 | 0.06 | 99 | 1006.9 |
| 20260510072708 | 46 | 326 | 0.0 | 0.0 | 0.00 | 0.06 | 0.06 | 99 | 1007.0 |
| 20260510072205 | 46 | 326 | 0.0 | 0.0 | 0.00 | 0.06 | 0.06 | 99 | 1006.9 |
| 20260510071701 | 46 | 326 | 0.0 | 0.0 | 0.00 | 0.06 | 0.06 | 99 | 1006.7 |
| 20260510071158 | 47 | 326 | 0.0 | 0.0 | 0.00 | 0.06 | 0.06 | 99 | 1006.8 |
| 20260510070656 | 47 | 326 | 0.0 | 0.0 | 0.00 | 0.06 | 0.06 | 99 | 1006.7 |
| 20260510070153 | 47 | 326 | 0.0 | 0.0 | 0.00 | 0.06 | 0.06 | 99 | 1006.8 |
| 20260510065648 | 47 | 326 | 0.0 | 0.0 | 0.00 | 0.06 | 0.06 | 99 | 1006.8 |
| 20260510065145 | 47 | 326 | 0.0 | 0.0 | 0.00 | 0.06 | 0.06 | 99 | 1006.9 |
| 20260510064641 | 48 | 326 | 0.0 | 1.0 | 0.00 | 0.06 | 0.06 | 99 | 1006.9 |
| 20260510064138 | 48 | 326 | 0.0 | 0.0 | 0.00 | 0.06 | 0.06 | 99 | 1006.7 |
| 20260510063636 | 48 | 326 | 0.0 | 0.0 | 0.00 | 0.06 | 0.06 | 99 | 1007.0 |
| 20260510063132 | 48 | 326 | 0.0 | 0.0 | 0.00 | 0.06 | 0.06 | 99 | 1007.0 |
| 20260510062628 | 48 | 326 | 0.0 | 0.0 | 0.00 | 0.06 | 0.06 | 99 | 1007.1 |
| 20260510062124 | 48 | 326 | 0.0 | 0.0 | 0.00 | 0.06 | 0.06 | 99 | 1007.2 |
| 20260510061620 | 48 | 326 | 0.0 | 0.0 | 0.00 | 0.06 | 0.06 | 99 | 1007.1 |
| 20260510061118 | 48 | 326 | 0.0 | 1.0 | 0.00 | 0.06 | 0.06 | 99 | 1007.0 |
| 20260510060613 | 48 | 326 | 0.0 | 0.0 | 0.00 | 0.06 | 0.06 | 99 | 1007.2 |
| 20260510060110 | 48 | 326 | 1.0 | 1.0 | 0.00 | 0.06 | 0.06 | 99 | 1007.6 |
| 20260510055606 | 48 | 326 | 0.0 | 0.0 | 0.00 | 0.06 | 0.06 | 99 | 1007.6 |
| 20260510055104 | 48 | 326 | 0.0 | 0.0 | 0.00 | 0.06 | 0.06 | 99 | 1007.5 |
| 20260510054600 | 49 | 326 | 0.0 | 1.0 | 0.00 | 0.06 | 0.06 | 99 | 1007.9 |
| 20260510054055 | 49 | 326 | 0.0 | 1.0 | 0.00 | 0.06 | 0.06 | 99 | 1007.8 |
| 20260510053554 | 49 | 326 | 0.0 | 0.0 | 0.07 | 0.06 | 0.06 | 99 | 1007.8 |
| 20260510053052 | 49 | 326 | 0.0 | 0.0 | 0.12 | 0.06 | 0.06 | 99 | 1008.0 |
| 20260510052548 | 49 | 326 | 0.0 | 0.0 | 0.12 | 0.05 | 0.05 | 99 | 1008.0 |
| 20260510052044 | 49 | 326 | 0.0 | 0.0 | 0.12 | 0.04 | 0.04 | 99 | 1008.3 |
| 20260510051540 | 50 | 326 | 0.0 | 0.0 | 0.12 | 0.03 | 0.03 | 99 | 1008.0 |
| 20260510051036 | 50 | 326 | 0.0 | 0.0 | 0.12 | 0.02 | 0.02 | 99 | 1008.5 |
| 20260510050534 | 50 | 326 | 0.0 | 0.0 | 0.05 | 0.01 | 0.01 | 99 | 1008.5 |
| 20260510050031 | 50 | 326 | 0.0 | 0.0 | 0.00 | 0.00 | 0.00 | 98 | 1008.6 |
| 20260510045528 | 50 | 326 | 1.0 | 1.0 | 0.00 | 0.00 | 0.00 | 99 | 1008.5 |
| 20260510045024 | 50 | 326 | 0.0 | 1.0 | 0.00 | 0.00 | 0.00 | 99 | 1008.5 |
| 20260510044521 | 50 | 326 | 2.0 | 2.0 | 0.00 | 0.00 | 0.00 | 99 | 1008.5 |
| 20260510044019 | 50 | 351 | 0.0 | 1.0 | 0.00 | 0.00 | 0.00 | 99 | 1008.3 |
| 20260510043514 | 50 | 84 | 2.0 | 2.0 | 0.00 | 0.00 | 0.00 | 99 | 1008.5 |
| 20260510043010 | 50 | 202 | 0.0 | 1.0 | 0.00 | 0.00 | 0.00 | 99 | 1008.4 |
| 20260510042504 | 50 | 226 | 1.0 | 2.0 | 0.00 | 0.00 | 0.00 | 99 | 1008.0 |
| 20260510041959 | 49 | 248 | 1.0 | 2.0 | 0.00 | 0.00 | 0.00 | 99 | 1008.0 |
| 20260510041456 | 49 | 226 | 2.0 | 2.0 | 0.00 | 0.00 | 0.00 | 99 | 1007.9 |
| 20260510040954 | 49 | 146 | 1.0 | 1.0 | 0.00 | 0.00 | 0.00 | 99 | 1007.4 |
| 20260510040450 | 49 | 274 | 1.0 | 2.0 | 0.00 | 0.00 | 0.00 | 99 | 1007.2 |
| 20260510035946 | 49 | 143 | 0.0 | 0.0 | 0.00 | 0.46 | 0.46 | 99 | 1006.8 |
| 20260510035443 | 49 | 98 | 0.0 | 0.0 | 0.00 | 0.46 | 0.46 | 99 | 1007.1 |
| 20260510034942 | 49 | 97 | 0.0 | 0.0 | 0.00 | 0.46 | 0.46 | 99 | 1007.1 |
| 20260510034441 | 49 | 124 | 0.0 | 0.0 | 0.00 | 0.46 | 0.46 | 99 | 1007.0 |
| 20260510033937 | 49 | 123 | 0.0 | 0.0 | 0.00 | 0.46 | 0.46 | 99 | 1006.9 |
| 20260510033433 | 49 | 123 | 0.0 | 0.0 | 0.00 | 0.46 | 0.46 | 99 | 1006.9 |
| 20260510032930 | 48 | 124 | 0.0 | 0.0 | 0.00 | 0.46 | 0.46 | 99 | 1007.0 |
| 20260510032427 | 48 | 123 | 1.0 | 1.0 | 0.00 | 0.46 | 0.46 | 99 | 1007.1 |
| 20260510031922 | 48 | 124 | 0.0 | 0.0 | 0.00 | 0.46 | 0.46 | 99 | 1007.0 |
| 20260510031418 | 48 | 124 | 0.0 | 0.0 | 0.00 | 0.46 | 0.46 | 99 | 1007.0 |
| 20260510030914 | 47 | 124 | 1.0 | 1.0 | 0.00 | 0.46 | 0.46 | 99 | 1007.1 |
| 20260510030410 | 47 | 86 | 1.0 | 1.0 | 0.00 | 0.46 | 0.46 | 99 | 1007.1 |
| 20260510025908 | 48 | 86 | 0.0 | 0.0 | 0.00 | 0.46 | 0.46 | 99 | 1007.0 |
| 20260510025405 | 48 | 86 | 0.0 | 0.0 | 0.00 | 0.46 | 0.46 | 99 | 1006.9 |
| 20260510024902 | 48 | 86 | 0.0 | 0.0 | 0.00 | 0.46 | 0.46 | 99 | 1006.8 |
| 20260510024358 | 48 | 198 | 0.0 | 0.0 | 0.00 | 0.46 | 0.46 | 99 | 1006.5 |
| 20260510023854 | 48 | 198 | 1.0 | 1.0 | 0.00 | 0.46 | 0.46 | 99 | 1006.5 |
| 20260510023351 | 48 | 198 | 0.0 | 1.0 | 0.00 | 0.46 | 0.46 | 99 | 1006.7 |
| 20260510022848 | 47 | 124 | 0.0 | 0.0 | 0.00 | 0.46 | 0.46 | 99 | 1006.6 |
| 20260510022347 | 47 | 124 | 0.0 | 0.0 | 0.00 | 0.46 | 0.46 | 99 | 1006.6 |
| 20260510021846 | 47 | 124 | 0.0 | 0.0 | 0.00 | 0.46 | 0.46 | 99 | 1006.6 |
| 20260510021345 | 47 | 124 | 0.0 | 0.0 | 0.00 | 0.46 | 0.46 | 99 | 1006.8 |
| 20260510020840 | 48 | 124 | 0.0 | 0.0 | 0.00 | 0.46 | 0.46 | 99 | 1006.7 |
| 20260510020335 | 48 | 124 | 0.0 | 0.0 | 0.00 | 0.46 | 0.46 | 99 | 1006.5 |
| 20260510015831 | 49 | 124 | 0.0 | 0.0 | 0.00 | 0.46 | 0.46 | 99 | 1006.6 |
| 20260510015327 | 49 | 124 | 1.0 | 2.0 | 0.00 | 0.46 | 0.46 | 99 | 1006.5 |
| 20260510014822 | 49 | 125 | 0.0 | 1.0 | 0.00 | 0.46 | 0.46 | 99 | 1006.4 |
| 20260510014320 | 49 | 121 | 0.0 | 1.0 | 0.00 | 0.46 | 0.46 | 99 | 1006.7 |
| 20260510013816 | 49 | 328 | 0.0 | 0.0 | 0.00 | 0.46 | 0.46 | 99 | 1006.6 |
| 20260510013311 | 48 | 125 | 1.0 | 1.0 | 0.00 | 0.46 | 0.46 | 99 | 1006.5 |
| 20260510012806 | 47 | 95 | 0.0 | 1.0 | 0.00 | 0.46 | 0.46 | 99 | 1006.6 |
| 20260510012301 | 46 | 111 | 0.0 | 0.0 | 0.00 | 0.46 | 0.46 | 99 | 1006.5 |
| 20260510011801 | 46 | 124 | 0.0 | 0.0 | 0.00 | 0.46 | 0.46 | 99 | 1006.1 |
| 20260510011257 | 46 | 125 | 0.0 | 0.0 | 0.00 | 0.46 | 0.46 | 99 | 1006.3 |
| 20260510010754 | 46 | 125 | 0.0 | 0.0 | 0.00 | 0.46 | 0.46 | 99 | 1006.3 |
| 20260510010250 | 46 | 125 | 0.0 | 0.0 | 0.00 | 0.46 | 0.46 | 99 | 1006.4 |
| 20260510005747 | 47 | 125 | 0.0 | 0.0 | 0.00 | 0.46 | 0.46 | 99 | 1006.3 |
| 20260510005243 | 47 | 125 | 0.0 | 0.0 | 0.00 | 0.46 | 0.46 | 99 | 1006.0 |
| 20260510004741 | 48 | 125 | 0.0 | 0.0 | 0.00 | 0.46 | 0.46 | 99 | 1006.0 |
| 20260510004239 | 49 | 125 | 0.0 | 0.0 | 0.00 | 0.46 | 0.46 | 99 | 1005.8 |
| 20260510003736 | 49 | 125 | 0.0 | 0.0 | 0.00 | 0.46 | 0.46 | 99 | 1006.2 |
| 20260510003232 | 49 | 125 | 0.0 | 0.0 | 0.00 | 0.46 | 0.46 | 99 | 1006.4 |
| 20260510002731 | 49 | 125 | 0.0 | 0.0 | 0.00 | 0.46 | 0.46 | 99 | 1006.0 |
| 20260510002229 | 49 | 125 | 0.0 | 0.0 | 0.00 | 0.46 | 0.46 | 99 | 1005.9 |
| 20260510001725 | 49 | 125 | 0.0 | 0.0 | 0.00 | 0.46 | 0.46 | 99 | 1006.1 |
| 20260510001224 | 50 | 125 | 0.0 | 0.0 | 0.00 | 0.46 | 0.46 | 99 | 1006.1 |
| 20260510000720 | 50 | 125 | 0.0 | 0.0 | 0.00 | 0.46 | 0.46 | 99 | 1005.8 |
| 20260510000218 | 50 | 125 | 1.0 | 1.0 | 0.00 | 0.46 | 0.46 | 99 | 1005.6 |
| 20260509235714 | 50 | 125 | 0.0 | 0.0 | 0.00 | 0.46 | 0.46 | 99 | 1005.6 |
| 20260509235210 | 51 | 125 | 0.0 | 0.0 | 0.00 | 0.46 | 0.46 | 99 | 1005.7 |
| 20260509234706 | 51 | 125 | 0.0 | 0.0 | 0.00 | 0.46 | 0.46 | 99 | 1005.7 |
| 20260509234204 | 51 | 125 | 0.0 | 0.0 | 0.00 | 0.46 | 0.46 | 99 | 1005.2 |
| 20260509233702 | 52 | 125 | 0.0 | 0.0 | 0.00 | 0.46 | 0.46 | 99 | 1005.2 |
| 20260509233159 | 52 | 125 | 0.0 | 0.0 | 0.00 | 0.46 | 0.46 | 99 | 1005.2 |
| 20260509232655 | 52 | 125 | 0.0 | 0.0 | 0.00 | 0.46 | 0.46 | 99 | 1004.9 |
| 20260509232152 | 52 | 125 | 0.0 | 0.0 | 0.00 | 0.46 | 0.46 | 99 | 1005.0 |
| 20260509231649 | 52 | 125 | 0.0 | 0.0 | 0.00 | 0.46 | 0.46 | 99 | 1005.3 |
| 20260509231146 | 52 | 125 | 0.0 | 1.0 | 0.00 | 0.46 | 0.46 | 99 | 1005.0 |
| 20260509230643 | 52 | 60 | 0.0 | 0.0 | 0.00 | 0.46 | 0.46 | 99 | 1005.4 |
| 20260509230140 | 52 | 57 | 0.0 | 0.0 | 0.00 | 0.46 | 0.46 | 99 | 1005.2 |
| 20260509225635 | 52 | 243 | 0.0 | 1.0 | 0.00 | 0.46 | 0.46 | 99 | 1005.1 |
| 20260509225131 | 52 | 234 | 0.0 | 0.0 | 0.00 | 0.46 | 0.46 | 99 | 1005.2 |
| 20260509224627 | 52 | 345 | 1.0 | 1.0 | 0.00 | 0.46 | 0.46 | 99 | 1005.2 |
| 20260509224124 | 53 | 355 | 0.0 | 0.0 | 0.00 | 0.46 | 0.46 | 99 | 1005.1 |
| 20260509223621 | 53 | 355 | 0.0 | 0.0 | 0.00 | 0.46 | 0.46 | 99 | 1005.2 |
| 20260509223118 | 53 | 355 | 0.0 | 0.0 | 0.00 | 0.46 | 0.46 | 99 | 1005.1 |
| 20260509222614 | 53 | 173 | 0.0 | 0.0 | 0.00 | 0.46 | 0.46 | 99 | 1004.9 |
| 20260509222110 | 53 | 173 | 0.0 | 0.0 | 0.00 | 0.46 | 0.46 | 99 | 1005.0 |
| 20260509221606 | 52 | 189 | 1.0 | 1.0 | 0.00 | 0.46 | 0.46 | 99 | 1005.1 |
| 20260509221102 | 52 | 187 | 0.0 | 1.0 | 0.00 | 0.46 | 0.46 | 99 | 1004.9 |
| 20260509220558 | 52 | 285 | 3.0 | 4.0 | 0.00 | 0.46 | 0.46 | 99 | 1004.9 |
| 20260509220055 | 52 | 248 | 3.0 | 4.0 | 0.00 | 0.46 | 0.46 | 99 | 1005.1 |
| 20260509215550 | 52 | 208 | 1.0 | 1.0 | 0.00 | 0.46 | 0.46 | 99 | 1005.3 |
| 20260509215048 | 52 | 213 | 0.0 | 2.0 | 0.00 | 0.46 | 0.46 | 99 | 1005.1 |
| 20260509214545 | 52 | 270 | 2.0 | 3.0 | 0.00 | 0.46 | 0.46 | 99 | 1005.4 |
| 20260509214042 | 52 | 300 | 2.0 | 3.0 | 0.00 | 0.46 | 0.46 | 99 | 1005.1 |
| 20260509213537 | 52 | 187 | 1.0 | 1.0 | 0.00 | 0.46 | 0.46 | 99 | 1005.3 |
| 20260509213035 | 51 | 177 | 0.0 | 0.0 | 0.00 | 0.46 | 0.46 | 99 | 1005.6 |
| 20260509212531 | 51 | 186 | 0.0 | 1.0 | 0.00 | 0.46 | 0.46 | 99 | 1005.3 |
| 20260509212029 | 51 | 259 | 1.0 | 2.0 | 0.00 | 0.46 | 0.46 | 99 | 1005.6 |
| 20260509211524 | 51 | 240 | 0.0 | 1.0 | 0.00 | 0.46 | 0.46 | 99 | 1005.6 |
| 20260509211021 | 51 | 153 | 2.0 | 2.0 | 0.00 | 0.46 | 0.46 | 99 | 1005.6 |
| 20260509210518 | 51 | 160 | 0.0 | 0.0 | 0.00 | 0.46 | 0.46 | 99 | 1005.8 |
| 20260509210015 | 51 | 226 | 1.0 | 2.0 | 0.00 | 0.46 | 0.46 | 99 | 1005.8 |
| 20260509205509 | 51 | 181 | 1.0 | 1.0 | 0.00 | 0.46 | 0.46 | 99 | 1005.7 |
| 20260509205005 | 51 | 180 | 1.0 | 1.0 | 0.00 | 0.46 | 0.46 | 99 | 1005.8 |
| 20260509204501 | 51 | 244 | 3.0 | 3.0 | 0.00 | 0.46 | 0.46 | 99 | 1005.8 |
| 20260509203957 | 51 | 153 | 1.0 | 2.0 | 0.00 | 0.46 | 0.46 | 99 | 1006.0 |
| 20260509203453 | 51 | 239 | 1.0 | 1.0 | 0.00 | 0.46 | 0.46 | 99 | 1006.0 |
| 20260509202951 | 51 | 152 | 0.0 | 0.0 | 0.00 | 0.46 | 0.46 | 99 | 1006.1 |
| 20260509202447 | 51 | 190 | 0.0 | 0.0 | 0.00 | 0.46 | 0.46 | 99 | 1006.2 |
| 20260509201942 | 51 | 202 | 2.0 | 2.0 | 0.00 | 0.46 | 0.46 | 99 | 1006.0 |
| 20260509201437 | 51 | 109 | 1.0 | 4.0 | 0.07 | 0.46 | 0.46 | 99 | 1005.9 |
| 20260509200934 | 51 | 229 | 2.0 | 2.0 | 0.07 | 0.46 | 0.46 | 99 | 1006.2 |
| 20260509200434 | 51 | 203 | 0.0 | 1.0 | 0.05 | 0.45 | 0.45 | 99 | 1006.1 |
| 20260509195931 | 51 | 218 | 1.0 | 1.0 | 0.05 | 0.45 | 0.45 | 99 | 1006.1 |
| 20260509195427 | 51 | 159 | 1.0 | 2.0 | 0.07 | 0.44 | 0.44 | 99 | 1006.3 |
| 20260509194926 | 51 | 210 | 1.0 | 2.0 | 0.12 | 0.44 | 0.44 | 99 | 1006.4 |
| 20260509194422 | 51 | 138 | 1.0 | 2.0 | 0.05 | 0.43 | 0.43 | 99 | 1006.3 |
| 20260509193920 | 51 | 137 | 1.0 | 2.0 | 0.00 | 0.42 | 0.42 | 99 | 1006.4 |
| 20260509193419 | 50 | 181 | 0.0 | 1.0 | 0.07 | 0.42 | 0.42 | 99 | 1006.4 |
| 20260509192916 | 50 | 216 | 1.0 | 2.0 | 0.07 | 0.42 | 0.42 | 99 | 1006.5 |
| 20260509192412 | 51 | 157 | 1.0 | 1.0 | 0.00 | 0.41 | 0.41 | 99 | 1006.5 |
| 20260509191907 | 50 | 92 | 3.0 | 3.0 | 0.00 | 0.41 | 0.41 | 99 | 1006.5 |
| 20260509191403 | 50 | 204 | 1.0 | 1.0 | 0.00 | 0.41 | 0.41 | 99 | 1006.4 |
| 20260509190859 | 50 | 147 | 0.0 | 0.0 | 0.00 | 0.41 | 0.41 | 99 | 1006.4 |
| 20260509190356 | 51 | 180 | 1.0 | 1.0 | 0.00 | 0.41 | 0.41 | 99 | 1006.7 |
| 20260509185854 | 50 | 186 | 1.0 | 2.0 | 0.00 | 0.41 | 0.41 | 99 | 1006.6 |
| 20260509185350 | 51 | 151 | 1.0 | 1.0 | 0.00 | 0.41 | 0.41 | 99 | 1006.5 |
| 20260509184847 | 50 | 155 | 2.0 | 2.0 | 0.00 | 0.41 | 0.41 | 99 | 1006.6 |
| 20260509184344 | 50 | 136 | 0.0 | 0.0 | 0.00 | 0.41 | 0.41 | 99 | 1006.4 |
| 20260509183841 | 50 | 213 | 0.0 | 0.0 | 0.00 | 0.41 | 0.41 | 99 | 1006.5 |
| 20260509183336 | 50 | 186 | 0.0 | 0.0 | 0.00 | 0.41 | 0.41 | 99 | 1006.6 |
| 20260509182832 | 50 | 164 | 1.0 | 2.0 | 0.00 | 0.41 | 0.41 | 99 | 1006.8 |
| 20260509182330 | 50 | 177 | 1.0 | 1.0 | 0.00 | 0.41 | 0.41 | 99 | 1006.7 |
| 20260509181827 | 50 | 164 | 1.0 | 1.0 | 0.00 | 0.41 | 0.41 | 99 | 1006.6 |
| 20260509181324 | 50 | 176 | 0.0 | 0.0 | 0.00 | 0.41 | 0.41 | 99 | 1006.7 |
| 20260509180821 | 50 | 166 | 0.0 | 0.0 | 0.00 | 0.41 | 0.41 | 99 | 1006.7 |
| 20260509180317 | 50 | 166 | 0.0 | 0.0 | 0.00 | 0.41 | 0.41 | 99 | 1006.4 |
| 20260509175814 | 50 | 167 | 0.0 | 1.0 | 0.00 | 0.41 | 0.41 | 99 | 1006.2 |
| 20260509175311 | 50 | 166 | 0.0 | 0.0 | 0.00 | 0.41 | 0.41 | 99 | 1006.4 |
| 20260509174807 | 50 | 221 | 2.0 | 3.0 | 0.00 | 0.41 | 0.41 | 99 | 1006.5 |
| 20260509174302 | 50 | 194 | 0.0 | 1.0 | 0.00 | 0.41 | 0.41 | 99 | 1006.3 |
| 20260509173758 | 50 | 167 | 0.0 | 1.0 | 0.00 | 0.41 | 0.41 | 99 | 1006.4 |
| 20260509173254 | 50 | 150 | 0.0 | 1.0 | 0.00 | 0.41 | 0.41 | 99 | 1006.6 |
| 20260509172750 | 50 | 147 | 1.0 | 2.0 | 0.07 | 0.41 | 0.41 | 99 | 1006.4 |
| 20260509172247 | 50 | 177 | 1.0 | 2.0 | 0.07 | 0.41 | 0.41 | 99 | 1006.5 |
| 20260509171742 | 50 | 165 | 0.0 | 1.0 | 0.00 | 0.40 | 0.40 | 99 | 1006.4 |
| 20260509171239 | 50 | 144 | 1.0 | 1.0 | 0.00 | 0.40 | 0.40 | 99 | 1006.5 |
| 20260509170736 | 50 | 158 | 1.0 | 1.0 | 0.00 | 0.40 | 0.40 | 99 | 1006.7 |
| 20260509170232 | 51 | 214 | 2.0 | 3.0 | 0.00 | 0.40 | 0.40 | 99 | 1006.4 |
| 20260509165730 | 51 | 144 | 0.0 | 0.0 | 0.00 | 0.40 | 0.40 | 99 | 1006.7 |
| 20260509165225 | 51 | 156 | 2.0 | 2.0 | 0.00 | 0.40 | 0.40 | 99 | 1006.6 |
| 20260509164721 | 51 | 135 | 2.0 | 3.0 | 0.00 | 0.40 | 0.40 | 99 | 1006.5 |
| 20260509164217 | 51 | 302 | 1.0 | 1.0 | 0.00 | 0.40 | 0.40 | 99 | 1006.6 |
| 20260509163715 | 50 | 177 | 1.0 | 1.0 | 0.00 | 0.40 | 0.40 | 99 | 1006.5 |
| 20260509163212 | 51 | 183 | 2.0 | 2.0 | 0.00 | 0.40 | 0.40 | 99 | 1006.7 |
| 20260509162709 | 50 | 198 | 1.0 | 1.0 | 0.00 | 0.40 | 0.40 | 99 | 1006.6 |
| 20260509162204 | 50 | 199 | 0.0 | 0.0 | 0.00 | 0.40 | 0.40 | 99 | 1006.7 |
| 20260509161700 | 50 | 300 | 0.0 | 1.0 | 0.05 | 0.40 | 0.40 | 99 | 1006.6 |
| 20260509161156 | 50 | 203 | 0.0 | 1.0 | 0.05 | 0.40 | 0.40 | 99 | 1006.8 |
| 20260509160652 | 50 | 201 | 1.0 | 1.0 | 0.00 | 0.39 | 0.39 | 99 | 1006.9 |
| 20260509160147 | 50 | 153 | 0.0 | 0.0 | 0.00 | 0.39 | 0.39 | 99 | 1006.8 |
| 20260509155644 | 50 | 118 | 5.0 | 6.0 | 0.00 | 0.39 | 0.39 | 99 | 1007.1 |
| 20260509155140 | 49 | 141 | 1.0 | 2.0 | 0.00 | 0.39 | 0.39 | 99 | 1007.0 |
| 20260509154635 | 49 | 157 | 2.0 | 2.0 | 0.00 | 0.39 | 0.39 | 99 | 1007.4 |
| 20260509154133 | 49 | 207 | 1.0 | 1.0 | 0.00 | 0.39 | 0.39 | 99 | 1007.5 |
| 20260509153630 | 50 | 150 | 0.0 | 1.0 | 0.07 | 0.39 | 0.39 | 99 | 1007.1 |
| 20260509153127 | 49 | 209 | 1.0 | 3.0 | 0.07 | 0.39 | 0.39 | 99 | 1007.2 |
| 20260509152622 | 49 | 131 | 1.0 | 1.0 | 0.05 | 0.38 | 0.38 | 99 | 1007.4 |
| 20260509152120 | 49 | 149 | 2.0 | 3.0 | 0.05 | 0.38 | 0.38 | 99 | 1007.5 |
| 20260509151616 | 49 | 178 | 0.0 | 0.0 | 0.07 | 0.37 | 0.37 | 99 | 1007.6 |
| 20260509151114 | 49 | 163 | 0.0 | 1.0 | 0.07 | 0.37 | 0.37 | 99 | 1007.6 |
| 20260509150612 | 48 | 163 | 0.0 | 0.0 | 0.05 | 0.36 | 0.36 | 99 | 1007.8 |